Flag for United Kingdom Weather past 2 weeks in Stafford, England, United Kingdom

Now
64 °F

Sprinkles. Overcast.


Feels Like: 64 °F
Forecast: 52 / 58 °F
Wind: 2 mph from Northeast

Location: Shawbury

Current Time: Aug 30, 2015 at 5:30:33 PM

Latest Report: Aug 30, 2015 at 4:50 PM


Visibility: N/A

Pressure: 30.07 "Hg

Humidity: 64%

Dew point: 52 °F

Location of StaffordLocation

Historic Weather in Stafford — Graph

°F

Stafford temperature yesterday

Maximum temperature yesterday: 66 °F (at 3:50 PM)
Minimum temperature yesterday: 52 °F (at 11:50 PM)
Average temperature yesterday: 58 °F

Past Weeks' High & Low Weather Summary

 TemperatureHumidityPressure
High73 °F (Aug 22, 4:50 PM)100% (Aug 16, 2:50 AM)30.09 "Hg (Aug 16, 2:50 AM)
Low41 °F (Aug 16, 2:50 AM)43% (Aug 18, 12:50 PM)29.45 "Hg (Aug 26, 5:50 AM)
Average60 °F80%29.86 "Hg
* Reported Aug 15 3:50 PM — Aug 30 3:50 PM, Stafford, Weather by CustomWeather, © 2015

Note: Actual official high and low records may vary slightly from our data, if they occured in-between our weather recording intervals... More about our weather records

Advertising

Stafford weather history for previous 24 hours

 ConditionsComfort  
Time TempWeatherWind HumidityBarometerVisibility
3:50 PM
Sun, Aug 30
64 °FPartly sunny.5 mph64%30.07 "HgN/A
2:50 PM64 °FPartly sunny.3 mph64%30.07 "HgN/A
1:50 PM64 °FPartly sunny.1 mph68%30.09 "HgN/A
12:50 PM63 °FPartly sunny.1 mph73%30.09 "HgN/A
11:50 AM63 °FPartly sunny.2 mph73%30.09 "HgN/A
10:50 AM61 °FOvercast.2 mph77%30.09 "HgN/A
9:50 AM57 °FOvercast.1 mph88%30.09 "HgN/A
8:50 AM54 °FPartly sunny.1 mph100%30.09 "HgN/A
7:50 AM50 °FScattered clouds.No wind100%30.09 "HgN/A
6:50 AM50 °FOvercast.2 mph100%30.09 "HgN/A
5:50 AM50 °FPassing clouds.1 mph94%30.07 "HgN/A
4:50 AM50 °FPassing clouds.1 mph100%30.09 "HgN/A
3:50 AM52 °FFog.2 mph94%30.07 "Hg6 mi
2:50 AM52 °FOvercast.1 mph100%30.07 "HgN/A
1:50 AM52 °FOvercast.1 mph94%30.09 "HgN/A
12:50 AM54 °FPassing clouds.1 mph94%30.09 "HgN/A
11:50 PM
Sat, Aug 29
52 °FPassing clouds.2 mph94%30.09 "HgN/A
10:50 PM54 °FPassing clouds.3 mph94%30.09 "HgN/A
9:50 PM55 °FCool.3 mph94%30.09 "HgN/A
8:50 PM55 °FPassing clouds.7 mph94%30.07 "HgN/A
7:50 PM59 °FPassing clouds.2 mph88%30.07 "HgN/A
6:50 PM61 °FScattered clouds.7 mph83%30.07 "HgN/A
5:50 PM61 °FPartly sunny.13 mph83%30.07 "HgN/A
Weather by CustomWeather, © 2015

See weather overviewHow to use our weather pages